Flag for Netherlands Weather past 2 weeks in Ede, Netherlands

Now
55 °F

Passing clouds.


Feels Like: 55 °F
Forecast: 52 / 74 °F
Wind: 1 mph from West

Location: Deelen

Current Time: Jul 31, 2014 at 1:47:34 AM

Latest Report: Jul 31, 2014 at 12:55 AM


Visibility: N/A

Pressure: 29.98 "Hg

Humidity: 100%

Dew point: 55 °F

Location of EdeLocation

Historic Weather in Ede — Graph

°F

Ede temperature yesterday

Maximum temperature yesterday: 73 °F (at 12:55 PM)
Minimum temperature yesterday: 57 °F (at 11:55 PM)
Average temperature yesterday: 66 °F

Past Weeks' High & Low Weather Summary

 TemperatureHumidityPressure
High93 °F (Jul 19, 5:25 PM)100% (Jul 16, 12:25 AM)30.18 "Hg (Jul 16, 12:25 AM)
Low54 °F (Jul 16, 5:25 AM)26% (Jul 19, 2:25 PM)29.74 "Hg (Jul 20, 3:25 AM)
Average70 °F77%29.97 "Hg
* Reported Jul 16 12:25 AM — Jul 31 12:55 AM, Ede, Weather by CustomWeather, © 2014

Note: Actual official high and low records may vary slightly from our data, if they occured in-between our weather recording intervals... More about our weather records

Advertising

Ede weather history for previous 24 hours

 ConditionsComfort  
Time TempWeatherWind HumidityBarometerVisibility
12:55 AM
Jul 31
55 °FPassing clouds.1 mph100%29.98 "HgN/A
12:25 AM55 °FCool.2 mph94%29.98 "HgN/A
11:55 PM
Jul 30
57 °FCool.3 mph94%29.98 "HgN/A
11:25 PM59 °FPassing clouds.6 mph88%29.98 "HgN/A
10:55 PM59 °FCool.3 mph88%29.98 "HgN/A
10:25 PM59 °FCool.3 mph94%29.98 "HgN/A
9:55 PM63 °FPassing clouds.3 mph83%29.98 "HgN/A
9:25 PM64 °FMild.5 mph73%29.95 "HgN/A
8:55 PM66 °FMild.8 mph73%29.95 "HgN/A
8:25 PM68 °FBroken clouds.10 mph69%29.95 "HgN/A
7:55 PM68 °FPassing clouds.12 mph69%29.95 "HgN/A
7:25 PM70 °FScattered clouds.12 mph69%29.92 "HgN/A
6:55 PM72 °FPassing clouds.12 mph61%29.92 "HgN/A
6:25 PM72 °FBroken clouds.13 mph61%29.92 "HgN/A
5:55 PM73 °FBroken clouds.10 mph57%29.92 "HgN/A
5:25 PM73 °FPartly sunny.12 mph57%29.92 "HgN/A
4:55 PM73 °FPartly sunny.10 mph57%29.92 "HgN/A
4:25 PM72 °FMore clouds than sun.8 mph57%29.92 "HgN/A
3:55 PM73 °FMild.9 mph57%29.92 "HgN/A
3:25 PM72 °FPartly sunny.7 mph61%29.92 "HgN/A
2:55 PM72 °FMostly cloudy.8 mph61%29.92 "HgN/A
2:25 PM72 °FMostly cloudy.10 mph61%29.92 "HgN/A
1:55 PM72 °FOvercast.9 mph61%29.92 "HgN/A
1:25 PM72 °FPartly sunny.8 mph57%29.92 "HgN/A
12:55 PM73 °FPassing clouds.9 mph61%29.92 "HgN/A
12:25 PM72 °FBroken clouds.10 mph61%29.92 "HgN/A
11:55 AM72 °FScattered clouds.8 mph61%29.89 "HgN/A
11:25 AM70 °FBroken clouds.10 mph69%29.89 "HgN/A
10:55 AM70 °FBroken clouds.8 mph69%29.89 "HgN/A
10:25 AM68 °FBroken clouds.8 mph73%29.89 "HgN/A
9:55 AM68 °FScattered clouds.8 mph73%29.89 "HgN/A
9:25 AM66 °FPassing clouds.8 mph73%29.89 "HgN/A
8:55 AM66 °FPassing clouds.8 mph78%29.89 "HgN/A
8:25 AM64 °FPassing clouds.7 mph83%29.89 "HgN/A
7:55 AM63 °FMild.6 mph88%29.89 "HgN/A
7:25 AM61 °FPassing clouds.5 mph94%29.89 "HgN/A
6:55 AM59 °FBroken clouds.1 mph100%29.89 "HgN/A
6:25 AM59 °FPassing clouds.1 mph94%29.89 "HgN/A
5:55 AM59 °FPassing clouds.3 mph94%29.86 "HgN/A
5:25 AM61 °FCool.5 mph94%29.86 "HgN/A
4:55 AM61 °FPassing clouds.6 mph94%29.86 "HgN/A
4:25 AM61 °FCool.8 mph94%29.86 "HgN/A
3:55 AM63 °FOvercast.7 mph88%29.86 "HgN/A
3:25 AM63 °FOvercast.7 mph88%29.86 "HgN/A
2:55 AM63 °FMostly cloudy.9 mph94%29.86 "HgN/A
2:25 AM63 °FPassing clouds.9 mph94%29.86 "HgN/A
1:55 AM63 °FPassing clouds.7 mph94%29.86 "HgN/A
1:25 AM63 °FPassing clouds.7 mph94%29.86 "HgN/A
Weather by CustomWeather, © 2014

See weather overviewHow to use our weather pages